User: anonymous   Login
Location: Houston
(29.7631°N, 95.3631°W)
Time: 21:12:32
(UTC-05:00)
Language:

LO-87 - Orbit

View from above orbital plane
View from above orbital plane
View from above satellite
View from above satellite

Ground track
Ground track

The orbit data is extracted from the following two-line orbital elements,

1 41557U 16033B   19146.84927404  .00000724  00000-0  29899-4 0  9998
2 41557  97.4173 234.4829 0014419  25.5473 334.6476 15.27155984166601
Epoch (UTC): 26 May 2019 20:22:57
Eccentricity: 0.0014419
inclination: 97.4173°
perigee height: 474 km
apogee height: 494 km
right ascension of ascending node: 234.4829°
argument of perigee: 25.5473°
revolutions per day: 15.27155984
mean anomaly at epoch: 334.6476°
orbit number at epoch: 16660

The dashed part of the orbit path shows where the satellite is in the earth's shadow,  

DLR